Wind_Speed
23 23 23 23 23 23 23 22 22 22 22 22 21 21 20 20 20 19 17 15 13 13 14 14 13 12 13 14 14 15 16 18 17 22 24 15 12 15 13 16 20 20 20 20 23 24 24 24 23 19 18 21 18 15 17 16 12 8 3 2 2 2 4 3 3 3 2 3 6 10 14 9 6 9 9 11 8 9 15 9 16 11 7 22 25 33 40 39
23 23 23 23 23 23 23 23 23 23 22 22 22 22 22 21 21 20 19 17 15 13 13 14 14 12 12 13 14 14 16 17 19 26 22 8 7 15 18 18 23 25 23 24 26 26 26 26 26 23 21 20 16 15 14 13 13 9 2 1 4 4 4 5 5 4 3 3 7 10 14 12 9 13 14 10 6 9 10 9 16 15 17 22 26 36 39 41
23 23 23 23 23 23 23 23 23 23 23 23 23 23 23 22 21 21 20 19 16 14 13 13 13 13 12 12 13 14 15 16 21 24 14 9 14 17 22 23 26 28 26 25 25 25 25 24 26 24 21 17 14 15 13 11 12 11 6 2 6 6 4 7 8 8 7 6 8 8 12 12 11 16 17 10 8 10 9 12 19 21 26 29 32 38 40 42
23 23 23 23 23 23 23 23 23 23 23 23 24 23 23 23 22 22 21 20 18 16 14 13 13 13 13 12 12 11 12 14 16 13 4 9 15 18 26 28 28 30 28 25 22 22 21 21 26 25 19 13 13 14 12 13 11 9 9 6 5 5 5 12 14 12 11 10 11 10 9 10 14 18 17 13 9 7 12 21 26 29 34 37 38 39 42 42
23 23 23 22 22 22 22 22 22 22 23 23 24 23 23 23 22 22 21 21 20 17 15 14 12 12 12 12 10 9 7 7 4 5 4 5 8 16 28 31 31 31 30 27 24 23 20 22 27 24 16 9 10 11 12 20 14 6 12 14 11 5 4 11 15 16 16 14 12 10 8 9 14 16 19 18 11 12 22 29 31 35 40 43 44 42 43 41
23 23 23 23 22 22 22 22 22 22 22 23 23 23 23 22 21 21 22 22 22 19 17 15 12 12 11 10 10 7 4 3 2 5 3 2 2 12 27 33 33 32 32 29 26 25 21 24 27 21 13 7 10 10 10 21 18 7 9 15 17 14 10 10 9 14 17 14 9 12 12 12 13 13 20 22 17 19 25 30 32 35 41 45 46 45 44 43
24 24 23 23 23 23 23 22 22 22 22 22 22 22 21 21 20 21 22 22 21 19 18 15 13 11 10 9 9 7 10 12 5 4 8 5 1 9 26 34 35 34 34 33 29 27 24 26 27 21 12 6 10 12 9 15 19 11 8 12 17 17 19 18 11 11 17 18 16 19 15 12 12 11 18 23 22 20 21 28 33 35 40 44 45 45 45 44
25 24 24 24 23 24 23 22 22 22 22 21 21 21 20 19 19 20 21 21 20 18 18 16 12 11 9 8 7 7 12 13 6 7 13 10 2 9 28 35 37 37 35 35 33 31 28 27 28 22 11 7 8 11 12 10 11 12 13 15 15 16 20 22 17 14 15 18 21 19 12 16 20 14 13 20 22 22 25 30 33 36 40 43 44 45 43 42
25 25 24 24 24 24 24 23 23 22 21 21 21 19 18 18 18 18 19 21 20 18 17 15 13 11 8 7 6 7 10 9 5 8 13 11 4 10 30 34 37 40 35 35 33 33 31 27 31 24 9 11 10 7 13 9 6 12 19 17 12 13 16 16 15 18 18 18 19 15 9 16 25 16 7 15 24 26 31 34 35 40 41 41 43 43 43 42
25 25 25 25 24 24 24 24 24 23 21 21 20 17 16 17 18 19 21 23 21 18 17 15 14 12 9 8 6 3 5 5 3 7 10 11 5 9 28 31 33 41 36 34 33 34 35 29 33 27 8 10 13 9 12 12 8 11 17 16 15 17 18 15 14 21 21 17 18 15 8 10 20 15 3 13 28 31 35 37 38 42 42 42 42 42 43 43
27 26 26 26 25 24 24 24 24 23 21 21 19 16 15 17 19 22 23 21 16 15 16 15 15 13 10 9 10 6 7 8 4 7 6 5 5 6 23 30 31 38 37 35 34 33 35 31 31 26 9 7 10 9 14 17 14 13 13 13 15 17 17 16 14 19 16 11 17 16 6 5 12 9 5 19 32 36 39 38 40 42 42 42 41 41 42 42
29 28 27 26 25 25 24 24 24 22 21 20 19 17 16 18 21 23 20 13 12 16 20 20 16 13 11 13 18 9 7 11 6 4 1 4 6 4 15 30 30 31 33 33 33 31 31 31 30 25 12 5 5 5 11 19 21 19 13 9 12 10 11 14 13 18 14 8 18 16 3 2 6 6 13 27 34 38 40 39 39 40 40 40 39 40 41 41
31 30 28 26 26 26 24 24 24 23 21 19 20 19 19 19 22 23 15 8 12 17 24 27 20 14 9 14 20 8 5 11 11 10 5 8 11 8 11 26 32 30 28 27 27 29 31 31 31 30 19 5 2 4 8 11 15 16 10 7 9 6 8 12 11 15 15 10 20 18 2 4 7 8 22 32 34 36 36 37 38 37 38 39 38 39 41 41
33 32 29 27 27 26 24 24 25 24 21 19 20 21 21 21 23 23 13 9 15 17 26 31 21 12 9 16 19 13 14 17 15 13 10 11 13 14 12 18 30 35 30 25 23 25 31 31 28 26 23 15 10 11 11 8 5 7 6 6 5 4 7 9 8 11 10 12 25 18 4 7 7 9 26 34 36 36 32 33 36 35 36 38 38 39 40 42
34 33 31 28 27 26 25 24 25 24 22 20 21 22 23 23 24 22 12 10 14 18 30 31 17 9 11 19 18 10 14 15 14 12 11 15 16 17 17 16 24 32 32 29 26 25 31 31 24 18 17 17 12 10 7 4 2 2 4 4 2 5 7 7 7 12 11 10 23 17 4 6 7 11 29 35 37 37 32 33 35 34 36 37 37 39 40 41
34 34 32 30 28 27 26 24 25 24 21 20 22 23 24 24 24 18 11 10 14 23 31 22 10 8 9 12 8 2 4 4 5 5 6 13 19 20 19 17 19 26 30 29 24 23 29 29 22 17 13 8 6 4 3 4 3 2 4 4 3 5 5 5 5 12 16 9 14 14 4 3 4 12 29 35 37 36 31 32 35 35 37 37 36 38 40 39
34 33 33 31 28 27 26 25 25 24 21 21 22 24 25 23 21 15 8 9 19 29 25 11 7 12 11 6 3 4 4 3 3 4 3 7 17 20 18 18 18 24 29 26 20 16 22 23 15 12 10 5 3 3 2 6 6 3 3 4 4 4 4 3 4 7 14 10 10 13 7 4 5 15 27 33 37 34 29 31 34 35 36 37 35 37 39 39
34 33 33 32 29 27 27 25 25 23 21 21 22 25 22 19 19 10 5 16 29 25 11 5 6 8 8 6 8 13 17 17 13 8 5 5 16 20 18 19 18 22 23 18 15 15 16 15 10 5 5 6 6 6 7 7 6 4 4 3 3 5 5 6 5 4 10 10 11 13 10 7 6 15 24 32 37 33 30 33 35 36 36 38 36 35 38 40
35 34 33 32 31 29 27 26 23 20 20 20 23 24 20 21 19 5 10 26 25 11 4 7 6 5 11 19 24 26 28 27 22 15 7 4 14 21 19 16 17 19 15 8 10 16 14 8 7 7 7 12 12 12 11 4 2 6 6 4 4 5 5 6 7 4 10 10 10 13 12 9 8 14 20 28 35 33 30 32 32 33 35 37 37 36 38 40
37 35 32 31 31 29 28 26 21 19 20 21 25 24 20 25 16 6 27 35 16 9 13 15 15 17 19 25 27 26 25 21 18 16 8 3 9 18 21 16 14 15 12 6 7 15 16 7 7 13 15 17 14 11 10 5 5 4 5 5 6 6 6 6 7 5 9 10 9 13 13 10 10 14 18 26 30 26 24 26 28 31 33 36 38 38 39 42
37 36 33 30 29 29 27 24 19 19 20 19 23 23 20 21 10 9 32 33 20 20 18 14 13 16 15 19 23 24 21 15 11 15 11 6 7 12 19 18 11 8 10 9 7 11 14 8 12 18 13 10 9 8 8 8 10 6 4 5 5 6 7 8 7 4 6 8 9 12 11 10 11 13 17 23 23 20 24 26 27 32 35 37 40 41 43 42
37 36 34 31 28 27 25 20 18 19 19 15 19 22 18 18 12 12 19 19 26 28 16 11 6 8 14 15 21 19 10 9 10 16 9 6 8 10 15 16 9 6 9 9 6 7 8 11 18 16 7 6 7 6 8 10 10 8 4 4 5 4 3 7 8 5 5 7 7 9 11 11 12 13 16 21 21 24 32 34 34 37 36 36 40 42 42 40
37 36 34 31 27 26 23 17 16 19 18 15 19 21 17 18 16 17 15 11 21 22 9 6 5 13 19 13 23 19 4 3 9 14 7 3 8 12 14 12 9 8 9 10 9 8 7 11 15 10 7 8 8 7 9 8 7 7 5 5 7 4 2 5 8 5 5 6 4 6 9 9 9 10 13 23 28 28 35 39 39 40 40 42 45 45 44 42
37 35 32 31 26 25 22 15 17 20 18 16 18 17 16 17 17 19 16 6 9 11 4 5 6 18 24 19 25 18 5 5 7 11 12 6 6 9 11 10 10 9 10 12 12 11 7 7 8 10 10 11 11 9 8 7 6 8 8 8 8 7 8 8 4 3 2 3 2 4 3 5 6 9 9 17 24 24 30 34 34 37 42 44 43 43 44 45
37 34 31 30 26 24 20 15 20 22 18 16 16 16 14 16 18 16 11 3 4 7 0 5 6 15 26 26 25 17 6 6 9 17 21 12 10 7 6 10 12 9 11 13 11 11 10 9 11 13 12 12 13 11 8 9 6 7 11 12 12 9 10 10 2 3 4 5 2 4 2 5 4 11 12 12 14 16 22 25 28 35 37 35 35 37 41 44
36 33 30 27 24 22 18 16 22 23 20 18 18 18 14 15 16 9 5 3 3 4 0 8 7 12 25 26 28 19 2 6 17 20 22 15 13 11 6 7 10 9 11 10 6 7 8 9 10 11 14 14 12 11 10 10 6 8 13 14 14 10 10 10 2 2 3 5 4 3 4 5 3 9 14 13 15 17 18 18 24 32 33 32 35 38 42 44
34 32 28 24 20 20 17 16 23 25 23 22 20 20 16 16 13 4 2 2 3 3 3 9 7 10 25 26 25 14 1 14 21 17 28 25 14 16 10 5 7 8 8 7 5 6 8 11 11 10 13 13 11 12 11 12 9 9 10 10 10 10 13 12 4 4 4 4 6 1 3 4 3 7 13 15 18 18 18 18 20 26 32 36 39 41 44 46
33 30 25 21 16 16 16 16 24 25 24 24 22 21 19 15 7 2 3 1 2 5 3 8 10 15 30 29 17 8 4 14 11 17 36 27 8 13 11 5 5 6 7 10 8 6 10 14 14 12 11 10 11 14 13 13 11 7 5 7 7 9 13 11 4 4 3 3 7 6 3 3 5 6 10 14 17 17 19 20 18 23 32 38 40 42 45 48
32 28 22 18 14 15 16 17 23 25 26 27 23 23 20 9 1 4 4 0 1 7 5 10 14 19 31 26 13 13 14 12 7 21 34 25 14 8 11 7 5 6 7 12 10 5 8 13 15 13 10 9 10 11 11 13 11 4 6 6 6 7 9 7 5 4 3 3 9 10 4 3 6 5 6 10 14 16 18 18 17 24 34 39 41 43 44 45
31 25 18 15 14 15 16 18 23 25 27 27 23 23 14 1 5 4 1 1 1 7 8 11 13 17 24 16 10 16 14 9 15 25 29 28 28 17 5 10 6 6 7 10 11 8 6 10 16 14 11 9 7 8 10 14 13 4 4 4 3 5 5 3 4 4 4 6 10 14 7 5 6 5 5 9 13 17 16 14 16 21 29 36 39 42 43 44
29 21 13 12 14 14 17 20 22 23 25 26 25 21 7 4 4 3 1 2 2 5 7 9 12 14 16 10 8 13 9 6 16 21 20 21 25 23 12 6 5 4 5 6 8 10 9 9 9 10 16 14 6 7 10 13 13 6 5 5 3 3 2 1 1 3 7 8 8 12 9 8 8 7 6 10 16 19 18 17 19 19 25 35 39 42 45 45
27 17 9 11 12 12 17 19 19 22 23 25 28 20 3 2 3 2 2 6 3 3 5 7 10 10 11 9 7 11 8 5 12 14 11 10 9 11 11 5 4 4 6 5 3 6 9 11 6 6 16 18 10 7 8 8 11 9 6 6 5 3 2 4 4 3 6 6 6 8 7 7 9 8 9 13 17 19 19 21 23 23 29 38 41 43 45 46
26 14 7 8 9 9 13 15 17 21 21 24 27 15 3 3 1 1 3 4 1 2 4 6 9 9 9 7 7 10 7 5 12 12 8 7 6 5 8 9 11 7 4 4 4 4 5 8 11 9 10 15 14 8 7 7 8 10 8 7 7 5 5 7 5 3 4 4 7 7 5 4 5 6 11 16 17 21 25 28 30 33 38 43 45 46 46 47
24 11 5 4 4 7 11 14 18 20 20 24 21 8 6 3 0 1 2 1 1 2 3 5 7 7 7 6 7 8 5 5 12 10 6 7 6 5 8 13 18 13 5 2 1 5 8 7 11 13 8 10 15 11 9 8 7 11 9 7 8 7 6 6 4 4 3 3 6 4 5 6 4 5 10 15 19 25 31 34 32 34 39 44 46 45 44 45
22 7 2 3 3 5 10 16 18 17 18 19 12 5 5 1 2 1 1 3 2 2 4 5 5 4 5 5 5 8 7 5 10 9 6 6 5 6 7 9 14 14 8 4 5 3 8 8 6 13 12 10 13 13 11 9 6 9 8 7 10 7 5 3 3 5 4 2 6 4 4 5 4 5 6 10 16 21 28 31 29 28 31 34 35 35 38 41
23 6 3 4 5 6 10 16 16 14 13 10 6 3 1 2 2 1 1 1 2 2 3 4 4 2 3 4 4 8 8 6 8 7 4 4 4 6 5 5 11 13 11 5 4 4 5 6 3 6 12 15 16 13 13 13 7 5 9 10 7 6 6 5 4 1 4 5 6 3 4 4 2 6 5 7 11 14 18 21 24 28 30 29 29 32 37 40
28 11 5 7 10 12 12 14 13 11 7 5 4 0 2 2 2 2 1 0 2 1 2 3 4 2 4 4 3 7 8 5 7 7 4 4 3 6 5 5 11 12 12 9 3 2 4 7 10 9 10 16 18 14 12 15 10 4 7 9 5 6 4 4 3 2 3 6 5 2 5 5 3 5 4 6 9 10 13 15 19 26 28 28 31 36 41 43
30 13 5 13 22 22 17 13 10 7 2 4 1 2 1 1 2 2 2 1 1 2 3 2 2 3 3 4 3 7 7 4 7 6 4 4 2 7 7 4 8 13 15 14 4 2 5 6 9 6 6 9 12 12 8 12 15 9 5 7 7 5 6 5 4 5 5 5 5 3 4 5 6 6 5 8 10 9 11 13 16 20 22 26 34 40 44 46
29 13 5 19 29 25 15 8 4 2 2 3 1 2 0 2 3 8 8 5 1 2 3 1 1 2 3 3 3 5 5 3 5 5 3 4 3 6 10 6 6 13 18 15 4 4 5 3 5 4 4 9 5 8 7 9 13 11 5 7 7 6 6 6 3 3 4 4 4 3 3 5 6 6 8 11 11 10 10 11 14 17 22 28 33 39 44 46
27 11 8 24 28 19 7 2 5 7 4 2 1 2 3 2 4 13 16 11 3 2 2 0 1 2 2 3 2 3 3 1 3 3 1 4 4 3 11 11 10 14 17 11 4 5 4 1 4 8 10 8 3 7 10 10 9 9 7 7 8 4 3 5 3 2 4 3 3 3 5 6 5 5 9 11 11 11 10 11 13 16 25 33 35 40 44 45
23 7 11 26 24 16 8 6 6 6 3 1 1 2 6 4 6 11 16 15 5 1 2 1 2 2 1 2 2 2 3 1 2 2 1 4 4 3 10 15 14 14 13 7 3 4 3 1 4 8 8 5 7 6 3 4 4 6 7 8 9 6 5 6 6 2 3 3 4 4 5 8 6 5 9 11 10 10 11 12 11 16 27 34 37 42 45 46
19 6 13 24 22 16 9 9 6 6 3 3 5 5 8 6 6 8 13 15 8 3 3 1 2 2 1 1 2 2 3 1 1 1 1 4 5 4 10 17 17 15 11 6 5 7 5 2 4 7 6 8 16 16 11 11 10 7 7 8 8 5 6 8 7 4 4 3 2 2 3 8 7 6 8 10 11 12 14 13 10 15 27 33 37 42 45 47
19 12 15 24 22 15 8 7 6 4 2 7 8 7 9 6 5 7 9 12 9 5 4 2 2 2 1 0 2 3 4 2 1 2 1 3 4 6 10 15 16 14 9 4 4 7 6 2 3 6 7 9 15 15 11 10 7 5 6 6 8 7 8 8 6 5 5 5 4 2 5 9 7 4 6 7 8 10 13 15 14 17 25 33 38 40 42 46
19 16 14 21 22 16 9 4 4 2 4 8 7 7 10 7 6 8 6 5 5 4 4 2 3 1 0 1 2 2 4 2 1 1 1 1 2 6 10 12 14 11 7 6 6 6 6 2 2 5 5 5 7 7 6 4 1 2 6 6 9 13 12 4 2 4 5 8 9 6 7 10 6 0 1 4 5 6 10 15 20 22 26 34 38 37 38 44
14 11 11 17 21 21 14 5 3 2 4 7 5 5 8 7 7 12 9 3 5 6 4 1 3 3 2 3 2 2 3 1 2 2 2 2 2 4 7 10 12 10 11 16 15 8 3 1 0 1 2 4 5 4 2 4 6 5 6 8 9 13 15 7 4 5 7 6 8 8 8 11 9 7 8 7 4 6 9 12 20 27 32 36 37 35 36 41
7 3 9 14 15 19 15 9 9 5 2 5 5 3 6 6 6 13 12 5 8 12 6 2 5 5 3 3 2 3 3 2 2 2 3 2 2 2 5 9 12 13 14 18 16 8 1 3 3 5 6 7 6 6 5 6 8 9 11 13 14 13 12 9 6 5 7 5 6 9 9 10 14 14 14 12 6 6 10 7 13 23 30 32 35 36 36 40
3 1 3 7 7 10 9 8 11 7 3 5 3 3 6 6 5 9 9 5 11 14 6 1 6 5 3 4 2 3 3 2 2 3 3 3 2 4 6 9 11 11 10 12 14 8 1 3 5 8 10 10 11 14 15 12 11 13 14 15 16 15 10 13 11 7 7 7 6 8 6 9 16 17 16 15 8 6 8 7 12 22 28 31 34 36 37 40
3 1 2 2 3 4 4 7 11 9 6 6 3 3 4 6 6 6 5 6 11 12 5 3 5 4 4 5 2 2 4 3 3 3 3 2 3 3 4 6 8 7 9 10 11 6 2 3 5 6 9 12 14 17 17 14 13 14 14 16 18 16 12 15 14 10 10 8 9 7 7 11 17 17 16 14 7 5 8 9 15 23 28 30 32 34 36 39
3 2 1 1 1 2 4 9 12 9 7 6 3 2 4 5 5 4 3 4 7 7 5 4 5 7 7 5 3 2 2 2 4 4 2 2 4 3 2 4 4 4 6 6 8 5 2 3 5 6 10 14 15 15 14 12 11 11 12 15 17 17 16 16 12 10 11 10 8 8 10 14 15 13 11 10 6 8 10 9 12 18 24 27 30 32 35 38
4 3 4 3 2 4 5 7 8 5 5 5 2 2 3 3 5 5 4 3 3 4 4 6 8 9 8 7 4 4 5 5 6 6 3 3 4 2 2 3 3 1 2 3 4 4 2 2 4 6 8 12 11 8 7 8 9 10 9 9 11 11 13 15 10 7 8 7 4 6 10 11 10 6 5 7 6 3 6 6 12 20 26 29 29 31 35 37
6 7 8 6 3 3 4 4 4 3 3 3 2 3 4 3 4 5 4 3 5 6 5 8 11 9 7 7 6 7 8 8 9 11 10 9 8 5 5 5 6 3 2 2 3 3 1 2 4 4 5 7 6 8 13 13 9 6 6 12 15 9 2 7 3 3 3 4 2 3 5 7 8 4 2 4 8 7 4 3 6 15 23 29 30 30 34 37
8 9 9 6 2 2 1 2 2 2 1 2 4 5 6 5 3 2 4 4 6 10 10 11 12 8 5 6 7 10 15 16 18 20 20 19 18 15 12 12 12 8 3 2 2 3 2 2 3 3 3 6 6 11 15 11 6 3 3 11 14 8 7 8 7 10 5 1 4 4 5 7 7 5 2 6 9 7 6 8 5 8 18 27 32 34 36 38
Wind_Direction
7 5 3 1 359 357 356 355 353 351 347 345 344 344 342 341 339 335 332 327 323 314 306 303 300 304 302 296 289 284 284 276 275 267 261 268 250 222 203 193 193 193 191 189 188 189 189 193 196 187 182 186 192 199 199 208 215 207 196 209 239 220 220 223 218 208 154 162 156 159 172 162 147 163 156 161 166 157 164 155 158 171 166 166 167 165 165 163
7 5 3 0 359 356 355 354 352 350 347 345 344 342 341 338 337 334 331 327 322 316 308 301 298 301 301 297 291 288 288 285 282 269 258 277 264 217 197 186 186 192 191 189 192 191 190 191 190 185 180 185 196 197 195 206 209 205 176 190 223 212 216 224 222 199 171 183 158 157 173 176 170 164 158 161 170 168 170 146 139 132 134 152 161 162 164 163
7 5 2 0 358 356 355 353 351 348 346 345 343 341 339 336 334 331 329 326 322 317 309 302 297 298 299 296 293 292 293 295 286 276 267 250 241 211 196 190 185 193 195 195 196 197 200 191 182 177 175 186 195 190 193 198 199 210 209 230 239 225 243 254 231 203 206 185 148 163 178 181 181 167 165 164 157 172 182 156 141 135 141 151 158 162 163 162
6 4 2 360 357 355 354 352 350 346 344 342 341 340 338 335 332 329 326 324 321 318 313 305 296 294 298 297 296 297 301 305 289 274 247 218 224 198 191 189 188 193 194 197 196 197 204 191 178 172 171 189 199 192 202 204 193 200 206 222 237 194 218 247 238 228 230 198 167 171 170 186 188 170 170 165 147 189 200 178 165 155 153 156 159 163 164 165
6 3 2 359 357 356 354 352 348 345 342 341 341 339 338 336 332 329 326 323 321 320 317 307 298 292 294 299 299 297 308 322 282 192 166 211 227 200 189 185 189 192 189 193 193 189 194 185 174 171 174 184 193 200 223 216 205 210 220 230 238 209 215 240 236 237 228 199 174 161 165 193 186 175 180 174 168 200 198 186 176 166 163 163 163 164 166 168
4 2 1 359 358 356 355 353 349 345 342 342 342 339 338 336 334 331 327 325 324 324 321 311 302 291 290 297 295 285 260 265 185 163 203 231 207 194 188 184 184 187 188 190 192 187 183 177 172 174 181 184 193 201 222 214 213 239 240 238 242 236 242 245 233 228 205 183 173 175 192 192 172 185 194 192 200 203 193 184 177 172 170 167 165 165 168 172
2 0 358 357 357 355 355 353 350 347 344 344 342 339 338 337 336 333 329 330 330 328 323 316 306 291 288 289 285 271 243 254 258 209 233 225 173 181 185 184 180 183 187 189 192 189 181 173 175 180 179 189 208 208 214 210 214 237 262 252 247 238 239 244 239 220 188 180 194 189 193 194 180 191 199 205 210 201 188 180 176 172 169 166 166 168 171 174
1 358 356 356 355 354 353 352 351 348 347 345 342 340 341 339 335 330 330 333 334 331 325 323 315 294 288 282 274 273 254 265 291 230 221 212 236 188 184 183 180 182 187 191 193 191 185 177 181 182 182 205 202 204 210 212 219 230 246 250 250 245 244 248 243 226 200 191 198 191 184 201 202 191 193 210 206 189 178 173 172 168 166 167 169 171 174 176
0 357 356 355 355 353 351 352 351 349 349 348 345 345 344 339 332 329 331 332 330 325 322 324 321 303 288 274 261 282 267 267 285 229 210 206 238 193 185 185 182 182 186 191 193 193 189 183 188 184 182 214 208 207 198 200 230 223 234 244 255 256 256 260 235 215 219 207 191 182 188 205 204 197 196 199 186 175 171 168 169 167 167 170 172 174 176 177
0 358 357 354 355 353 351 350 349 350 349 349 350 348 345 338 330 330 332 331 326 321 323 321 320 312 291 265 224 255 253 232 233 197 195 209 229 186 188 190 184 184 187 190 192 195 194 193 193 187 186 217 217 229 198 198 229 228 241 253 258 261 263 263 233 214 221 215 188 175 195 201 190 195 217 172 168 164 163 163 167 168 169 172 174 176 178 180
1 1 358 354 355 355 352 348 347 349 347 348 351 346 343 336 333 335 333 337 342 348 345 332 321 309 294 256 216 224 224 203 173 161 168 214 229 189 191 191 184 184 188 190 194 198 200 201 193 186 205 231 214 233 228 228 242 252 260 266 260 263 263 252 234 221 215 212 199 180 179 178 170 193 184 158 161 162 161 161 167 170 172 175 176 178 180 182
1 1 359 355 354 355 353 347 345 348 347 347 346 344 342 335 337 338 337 350 8 9 359 348 332 306 295 255 235 236 212 209 222 191 147 308 250 211 191 195 191 189 191 191 197 201 201 202 192 185 195 219 196 211 245 243 244 251 258 272 270 274 268 248 235 221 205 205 198 174 120 182 179 198 165 159 161 162 161 162 168 171 173 176 177 180 182 183
359 359 360 356 354 355 353 346 343 346 347 345 339 342 343 339 340 337 334 338 339 351 351 345 332 304 283 251 249 257 230 238 245 218 234 288 247 215 193 198 201 203 207 206 204 203 201 200 195 194 198 210 218 234 291 277 245 244 241 249 268 285 274 251 239 215 202 197 178 164 172 220 208 192 161 162 163 159 162 165 169 172 174 177 179 182 184 186
357 357 358 357 354 353 353 346 342 345 347 342 335 339 343 341 341 333 323 304 315 334 338 337 330 305 258 256 274 279 261 257 243 222 231 251 228 211 202 199 204 205 210 217 215 207 201 198 197 201 215 234 261 279 307 323 262 245 234 233 239 251 266 249 224 196 195 191 173 170 230 208 211 184 161 164 165 161 164 168 171 174 176 178 181 183 186 189
356 354 356 358 354 351 353 348 343 345 345 337 333 339 342 342 340 330 313 296 308 325 330 331 326 304 270 273 292 280 258 253 239 244 249 233 216 207 203 199 205 204 204 209 211 207 200 196 196 205 225 238 258 285 302 319 282 236 219 248 215 211 256 266 224 188 189 189 176 181 232 206 215 178 165 166 167 167 167 171 175 176 177 180 183 186 187 191
354 352 354 357 354 351 352 349 345 345 342 334 332 339 341 340 338 328 309 290 304 323 327 327 319 305 284 283 310 318 262 247 232 257 239 220 214 206 201 200 205 206 204 204 204 206 201 197 200 214 230 245 246 245 288 308 284 226 199 236 217 203 247 275 256 202 192 179 180 191 193 199 218 174 169 169 170 170 169 174 178 179 179 181 184 187 189 191
352 350 352 355 355 352 350 349 346 344 341 334 332 339 341 338 338 331 304 291 312 323 324 316 314 298 272 265 349 13 347 306 263 253 214 210 211 206 202 204 207 207 206 204 203 200 197 195 197 215 224 234 211 162 229 255 243 244 202 214 222 215 232 251 293 230 190 171 182 196 200 210 189 167 171 173 173 173 173 176 180 182 183 183 185 187 190 192
350 348 349 352 355 353 350 348 346 344 341 334 335 340 338 337 344 337 292 315 322 329 328 302 326 312 281 298 315 313 311 297 283 269 258 214 201 200 202 207 207 203 201 204 211 200 191 192 190 204 218 219 212 185 203 218 209 209 192 198 228 226 231 232 271 242 177 174 183 193 212 223 179 165 173 177 176 175 179 180 181 183 185 187 187 188 191 194
349 346 345 349 354 354 351 347 346 345 340 336 338 340 341 348 356 349 316 325 325 332 327 294 300 289 291 307 312 310 304 295 287 278 268 223 200 197 200 208 204 191 180 184 208 196 185 181 183 197 215 213 210 206 208 214 184 182 179 191 211 226 239 231 251 229 174 180 190 194 210 213 180 174 178 178 179 181 182 181 181 184 186 188 190 192 193 196
350 346 342 344 350 353 352 348 348 347 343 340 342 350 3 3 5 344 331 328 320 316 308 299 284 270 285 309 326 330 311 294 283 270 246 194 198 197 199 196 187 182 174 175 187 183 182 182 200 207 212 210 209 209 206 232 252 206 173 201 215 229 250 236 245 240 182 182 202 203 207 209 190 185 183 179 181 184 182 181 183 185 187 190 193 195 196 199
351 347 342 342 346 352 353 351 351 352 348 345 354 15 29 14 12 333 333 329 326 329 321 325 300 275 303 328 344 345 317 299 269 244 225 204 195 191 197 189 173 184 192 186 166 171 181 195 219 216 212 204 207 204 190 211 239 243 208 216 231 228 245 250 244 245 192 193 215 209 207 216 202 191 185 178 181 188 185 183 187 188 190 192 195 198 200 201
352 347 343 342 346 351 355 356 356 357 354 352 13 32 35 18 10 343 335 313 312 322 325 352 346 315 340 347 356 351 304 296 272 242 230 223 222 195 187 185 185 200 193 183 168 169 186 218 224 214 187 181 201 194 186 201 220 235 231 225 249 232 251 274 259 247 201 201 224 204 204 222 211 194 185 181 186 191 189 187 189 190 190 193 197 199 201 200
350 346 344 344 347 352 355 358 358 359 0 6 23 30 22 12 7 350 339 289 297 315 334 24 37 6 360 357 356 350 256 269 285 263 269 262 241 211 187 185 195 200 193 190 191 183 193 226 220 194 162 183 207 199 189 201 214 222 217 216 241 231 186 249 255 242 201 205 220 185 198 227 214 195 189 191 191 190 191 193 193 192 192 195 198 199 199 198
350 346 345 344 348 353 355 358 0 0 3 11 20 22 14 6 4 353 339 289 288 313 358 56 33 13 5 355 349 340 269 249 265 297 316 299 266 227 204 198 192 205 208 195 201 205 222 239 179 162 181 191 206 215 196 199 218 223 218 218 231 227 216 228 268 323 290 253 218 142 191 260 213 192 198 198 195 193 194 194 196 198 198 199 198 198 199 199
350 347 345 345 349 353 355 360 4 3 3 9 11 8 11 3 357 354 343 321 306 295 192 32 8 8 2 357 352 337 278 258 285 325 329 294 268 259 226 209 197 213 212 194 204 216 234 234 168 166 193 193 204 216 205 202 216 233 224 221 224 225 235 238 273 351 320 296 259 132 188 287 230 197 202 195 194 200 197 194 198 201 202 201 198 199 201 202
352 347 345 347 350 354 360 5 6 5 3 4 1 356 1 358 349 351 10 42 327 280 263 4 356 2 356 354 351 343 256 314 327 340 345 321 275 256 238 215 204 213 204 187 206 219 224 218 182 181 193 193 207 215 211 200 200 238 225 219 221 223 246 247 205 184 237 261 261 147 178 262 268 211 207 191 191 201 200 199 202 200 200 200 200 201 202 203
353 347 346 351 354 357 5 9 6 6 3 355 349 349 350 349 343 340 51 43 324 324 4 359 358 352 348 347 352 1 194 329 339 352 352 341 288 252 238 218 208 205 183 179 219 208 197 199 190 196 196 192 206 212 207 190 196 236 219 207 215 217 241 244 195 207 245 278 279 244 166 238 268 223 212 195 194 201 201 204 204 199 199 201 202 203 202 204
353 347 344 353 359 360 4 6 4 4 1 350 342 343 342 339 334 138 81 71 317 7 6 347 347 339 343 346 2 34 12 349 349 340 348 354 316 257 238 224 231 214 174 191 215 184 188 204 193 192 202 200 208 210 198 188 211 238 178 179 206 211 237 241 194 218 259 314 280 265 176 229 271 239 214 199 198 203 205 205 202 199 201 203 204 204 204 205
352 346 343 356 5 3 3 2 0 359 355 348 342 339 337 335 91 119 67 160 344 22 3 345 349 341 341 344 8 20 9 23 15 337 350 9 8 302 233 229 246 241 219 210 215 185 192 206 190 191 211 207 211 213 191 194 221 217 138 173 203 214 239 234 186 200 224 230 254 255 202 199 272 260 201 199 205 207 207 207 203 202 202 203 205 206 206 206
352 345 344 1 11 6 6 3 359 356 350 347 341 337 337 59 108 91 48 233 57 11 358 358 352 338 337 338 1 7 5 24 8 353 358 5 8 8 272 247 236 238 250 227 220 221 223 204 190 197 218 204 195 207 195 204 215 180 143 197 230 238 248 234 170 167 219 232 243 249 222 183 256 268 194 197 207 207 205 206 207 206 205 205 206 206 207 206
352 345 344 8 15 4 358 354 351 348 347 348 344 341 351 114 76 107 197 315 350 350 358 7 349 338 342 340 348 356 357 13 9 7 4 359 7 18 9 303 271 266 260 244 227 226 234 223 199 199 209 199 173 198 207 208 210 197 181 200 252 286 290 277 159 156 221 234 239 244 228 198 232 257 216 205 208 205 203 204 203 202 204 206 206 206 207 206
354 348 348 8 12 1 354 346 338 340 345 350 346 343 12 99 18 157 284 332 330 352 8 357 342 339 337 337 352 351 343 6 14 13 10 359 360 20 34 25 319 277 233 235 225 218 226 229 237 222 206 198 184 194 207 204 204 204 189 184 207 236 227 221 205 191 223 235 240 230 213 210 230 236 214 206 210 208 207 208 202 197 202 206 206 205 206 207
357 351 353 8 4 353 351 342 333 336 341 346 345 345 73 97 24 207 324 338 327 0 1 338 336 336 332 345 9 353 339 16 19 10 4 8 9 26 42 33 18 3 263 226 193 199 217 222 227 231 214 200 195 191 194 198 195 198 192 182 193 197 206 217 220 234 228 231 243 217 180 215 243 229 205 198 207 210 211 214 207 201 203 205 205 205 204 206
1 357 354 2 359 353 352 341 332 333 339 346 348 5 75 79 213 28 357 281 253 331 331 335 337 333 347 2 5 8 12 18 14 9 3 9 14 16 17 25 26 15 340 295 246 205 214 218 210 215 208 186 198 202 187 178 184 201 195 180 197 200 197 205 199 210 206 227 247 213 172 202 201 216 205 190 200 208 212 217 212 208 209 207 207 204 202 204
5 12 331 289 294 339 349 340 332 330 339 349 358 46 78 104 234 340 318 255 270 319 314 335 342 336 10 357 347 29 38 0 2 6 4 13 28 26 11 20 27 21 16 351 343 325 235 229 195 206 202 174 200 209 180 164 185 205 190 189 210 194 163 193 201 182 151 191 242 220 203 217 209 250 235 185 194 203 209 214 211 212 214 211 210 206 202 204
4 10 275 279 286 309 337 338 329 327 340 1 32 55 114 191 203 217 231 278 278 302 325 346 347 334 15 346 325 21 21 351 357 0 356 10 42 48 31 28 33 31 27 359 301 348 282 257 317 251 214 195 202 200 180 182 184 181 191 205 202 146 149 207 234 192 125 185 231 216 224 262 280 270 258 172 184 198 205 209 207 209 207 203 207 207 205 206
1 356 289 317 321 309 320 329 324 320 339 42 79 336 242 206 193 208 215 301 255 300 33 25 359 359 10 348 334 11 10 355 1 1 354 357 35 56 47 34 38 36 18 357 287 341 337 287 300 287 234 220 209 196 195 195 177 149 198 197 134 106 166 195 209 244 181 208 251 231 208 227 220 246 247 171 178 193 200 203 208 210 202 194 200 205 206 207
356 354 308 334 330 316 309 310 313 306 321 74 81 259 224 211 266 266 272 292 294 32 65 80 4 22 15 352 350 10 14 15 9 4 358 352 27 56 50 21 27 28 4 349 318 305 338 300 283 251 228 253 221 197 208 204 197 204 190 155 142 169 202 185 186 218 202 216 270 274 223 211 205 224 220 194 197 195 191 197 205 209 204 197 198 202 205 206
355 359 331 336 333 326 315 295 319 20 108 70 335 258 277 243 338 21 24 12 41 66 57 86 10 31 28 13 0 6 19 33 12 9 18 6 340 37 44 17 357 13 359 346 331 311 324 303 287 286 326 322 261 195 208 211 206 208 170 149 175 196 199 190 184 186 186 209 243 262 258 230 224 211 188 196 209 201 182 184 198 207 209 205 199 201 204 203
357 3 333 340 341 337 333 148 87 66 79 38 255 276 325 302 21 26 24 17 21 102 49 350 58 41 19 13 0 355 8 81 42 17 356 356 330 12 40 21 350 354 350 338 322 319 324 322 293 311 334 330 261 198 203 205 202 200 191 186 193 192 176 198 213 144 157 188 199 225 256 250 247 212 189 196 209 208 189 178 191 203 208 207 202 201 203 202
359 3 332 347 354 348 2 91 60 32 80 25 338 316 329 4 32 11 10 10 4 106 80 124 97 85 86 11 357 327 325 256 92 41 307 356 356 2 23 14 354 344 343 336 336 330 316 338 296 297 325 310 253 258 248 242 249 218 208 202 199 189 146 185 229 206 148 173 174 189 252 261 248 198 191 197 203 212 202 184 188 199 203 205 204 202 202 202
357 351 343 358 6 360 28 84 29 5 90 13 339 308 311 349 28 3 3 5 358 11 35 78 97 79 110 8 328 317 328 317 115 88 357 354 345 327 350 357 352 344 338 314 304 313 296 293 290 276 280 263 260 274 293 292 286 266 240 214 197 186 163 187 219 210 181 200 175 148 266 270 250 197 195 206 206 212 211 196 187 198 202 204 205 204 202 202
346 331 355 12 11 8 49 83 11 10 50 344 332 319 320 346 31 17 8 7 4 356 350 31 89 58 63 10 339 338 335 342 98 97 5 324 317 320 334 346 350 343 332 304 296 319 315 302 306 296 290 276 267 267 270 263 252 264 266 224 193 199 199 199 201 179 181 207 204 214 263 270 267 204 202 231 230 221 217 204 189 193 203 206 208 205 200 200
338 322 349 14 16 28 62 71 356 3 349 343 338 337 347 360 23 23 16 18 24 351 321 10 61 54 307 358 7 338 325 339 115 165 260 262 288 326 330 339 345 335 314 310 319 327 326 329 7 340 321 290 267 250 256 275 330 321 292 252 220 210 201 189 128 158 200 209 193 197 242 256 274 291 235 286 278 251 233 213 198 193 200 206 209 205 198 198
341 325 338 1 22 45 61 65 29 6 337 350 339 331 349 349 12 25 21 30 31 359 307 315 20 14 12 14 2 312 323 24 170 206 229 261 290 316 319 326 330 317 294 296 304 311 310 283 341 344 270 243 236 219 227 346 344 309 298 302 272 225 202 182 120 173 216 210 184 195 233 256 280 291 276 273 261 262 260 223 202 201 202 203 204 201 196 196
352 343 332 344 16 43 49 47 39 30 344 356 343 320 348 340 356 15 14 22 14 355 319 287 15 23 16 4 345 315 309 188 206 263 232 253 286 256 292 308 307 304 299 300 313 330 298 251 236 215 230 246 262 276 289 312 307 287 291 303 296 267 224 187 149 188 198 168 189 214 223 251 269 270 266 264 262 277 275 233 197 204 204 199 198 196 194 195
8 66 350 338 358 23 27 25 25 17 322 340 323 290 348 0 354 359 2 4 352 344 324 340 31 32 345 330 327 298 294 256 274 296 258 259 275 248 273 290 290 305 327 329 329 336 282 274 265 231 237 253 265 277 285 289 278 268 275 280 282 285 252 202 194 193 159 148 221 235 205 230 253 256 256 262 273 287 273 231 198 200 197 193 193 192 192 195
0 343 32 9 334 1 5 344 348 343 320 329 304 270 350 15 10 354 347 345 346 345 345 6 12 2 321 316 310 271 296 301 273 263 242 241 255 254 274 278 278 319 0 347 324 315 221 262 275 257 268 274 270 271 272 269 260 252 257 263 268 277 262 224 208 181 157 179 222 223 187 216 244 251 253 262 271 263 253 234 216 204 191 187 188 186 189 192
344 323 334 2 294 293 300 310 317 321 323 325 317 349 10 8 2 349 309 320 338 341 345 334 321 323 312 300 291 256 262 276 265 257 228 241 259 247 256 276 281 340 358 329 307 303 256 258 280 297 299 288 275 265 255 254 265 264 260 261 263 263 253 237 212 171 174 203 215 199 194 219 242 250 258 276 283 254 245 233 221 205 185 182 184 183 187 191
322 315 303 306 284 265 277 299 313 322 329 328 328 7 1 344 347 343 312 302 311 314 335 326 308 308 304 293 278 249 245 244 253 254 232 256 275 223 186 241 242 269 313 286 294 312 299 277 306 327 315 295 283 278 278 280 280 272 278 300 300 279 243 227 211 174 182 211 231 207 209 235 256 253 265 303 339 310 255 218 204 199 186 182 184 183 186 189
297 299 306 307 288 267 277 295 313 314 312 317 330 345 338 332 342 334 306 260 250 267 294 309 306 302 300 293 268 257 269 263 259 263 261 267 266 228 194 196 189 202 264 228 253 300 288 283 321 353 330 291 291 326 325 315 298 274 316 345 336 324 216 185 169 80 163 193 170 170 204 246 270 275 292 352 31 39 359 322 233 208 191 182 182 184 186 187
293 298 311 312 276 276 295 281 297 301 285 297 317 329 325 315 318 325 316 286 254 266 281 291 295 298 296 285 269 278 290 288 283 281 278 275 267 252 239 219 194 187 207 195 223 265 250 273 323 359 314 281 301 324 317 317 327 294 337 357 342 343 72 87 49 24 16 184 159 174 219 250 276 302 2 54 50 47 31 15 343 235 203 189 185 186 187 188
Height
1519 1518 1516 1514 1512 1511 1509 1507 1505 1503 1502 1500 1498 1497 1495 1494 1492 1490 1489 1488 1487 1486 1484 1482 1482 1482 1481 1480 1479 1479 1478 1478 1478 1477 1473 1469 1471 1477 1479 1480 1482 1484 1485 1486 1487 1489 1491 1493 1496 1499 1501 1503 1504 1504 1506 1507 1507 1508 1510 1515 1517 1513 1508 1498 1495 1493 1491 1492 1493 1494 1494 1495 1498 1499 1501 1503 1505 1505 1507 1508 1507 1509 1510 1511 1514 1516 1519 1522
1519 1517 1516 1514 1512 1510 1508 1507 1505 1503 1501 1499 1497 1496 1494 1492 1491 1489 1487 1486 1486 1484 1483 1481 1480 1480 1479 1479 1478 1477 1477 1476 1475 1472 1468 1468 1470 1473 1476 1478 1480 1481 1482 1483 1485 1486 1488 1491 1494 1497 1500 1501 1502 1504 1505 1505 1506 1506 1507 1513 1512 1505 1499 1491 1489 1488 1487 1489 1489 1492 1493 1494 1495 1497 1499 1503 1505 1506 1508 1508 1508 1510 1511 1514 1516 1518 1520 1523
1519 1517 1515 1513 1512 1510 1508 1506 1504 1502 1500 1498 1496 1495 1493 1491 1489 1488 1486 1484 1484 1483 1482 1480 1479 1478 1478 1477 1476 1476 1475 1474 1471 1466 1464 1466 1467 1469 1473 1475 1477 1479 1480 1482 1484 1486 1488 1490 1493 1496 1499 1501 1502 1503 1504 1503 1504 1504 1506 1512 1504 1494 1492 1489 1488 1487 1485 1486 1487 1490 1492 1493 1494 1496 1499 1501 1504 1506 1506 1506 1505 1508 1511 1513 1516 1518 1520 1523
1519 1517 1515 1513 1511 1509 1507 1505 1503 1501 1499 1497 1495 1494 1492 1490 1488 1487 1485 1483 1482 1481 1480 1479 1478 1477 1476 1476 1475 1475 1474 1473 1467 1462 1463 1463 1463 1465 1468 1471 1474 1476 1480 1483 1485 1487 1489 1491 1493 1495 1498 1500 1501 1502 1502 1501 1501 1501 1502 1503 1494 1489 1492 1488 1487 1487 1486 1485 1486 1489 1492 1493 1494 1496 1497 1499 1505 1507 1503 1501 1500 1503 1507 1511 1515 1518 1520 1523
1519 1517 1515 1513 1511 1509 1507 1505 1503 1501 1498 1496 1495 1493 1491 1489 1487 1485 1484 1482 1480 1479 1479 1478 1477 1476 1475 1474 1474 1473 1474 1472 1464 1461 1462 1462 1463 1464 1465 1468 1472 1474 1478 1482 1484 1486 1488 1490 1492 1495 1497 1498 1500 1501 1498 1497 1498 1498 1494 1491 1487 1489 1491 1487 1486 1487 1486 1486 1486 1489 1491 1492 1493 1495 1496 1496 1500 1499 1495 1497 1499 1500 1503 1506 1510 1515 1519 1522
1519 1517 1515 1513 1510 1508 1506 1504 1502 1500 1498 1496 1494 1492 1490 1488 1486 1484 1483 1481 1479 1478 1477 1476 1476 1475 1474 1474 1473 1473 1474 1469 1462 1462 1462 1462 1462 1463 1464 1466 1469 1473 1477 1480 1482 1484 1486 1489 1491 1493 1495 1496 1497 1496 1494 1494 1497 1497 1491 1486 1487 1488 1488 1486 1486 1486 1485 1487 1487 1488 1488 1489 1492 1494 1494 1494 1493 1492 1493 1497 1499 1501 1502 1505 1509 1513 1517 1520
1518 1516 1514 1512 1510 1508 1506 1503 1501 1499 1497 1495 1493 1491 1489 1487 1485 1483 1481 1480 1478 1477 1476 1475 1474 1474 1473 1473 1472 1472 1472 1465 1461 1463 1461 1461 1462 1462 1464 1465 1468 1471 1474 1477 1480 1482 1484 1486 1488 1489 1492 1494 1493 1492 1492 1493 1495 1496 1492 1485 1485 1486 1485 1484 1487 1487 1485 1486 1485 1486 1487 1488 1490 1492 1492 1492 1491 1494 1497 1499 1501 1504 1506 1508 1510 1513 1515 1517
1518 1516 1513 1511 1509 1507 1505 1502 1500 1498 1496 1494 1492 1490 1488 1486 1484 1482 1480 1479 1477 1476 1475 1474 1473 1472 1472 1472 1471 1471 1469 1462 1460 1461 1459 1460 1461 1460 1462 1463 1466 1469 1471 1473 1475 1478 1481 1483 1486 1488 1491 1491 1490 1490 1492 1494 1494 1493 1488 1482 1482 1484 1483 1483 1486 1487 1486 1485 1485 1485 1487 1486 1486 1488 1489 1490 1491 1494 1496 1500 1502 1505 1508 1509 1510 1513 1516 1518
1518 1515 1513 1511 1508 1506 1504 1501 1499 1497 1495 1493 1491 1489 1487 1485 1483 1481 1479 1478 1476 1475 1474 1473 1472 1471 1471 1471 1471 1470 1464 1459 1459 1459 1459 1460 1460 1460 1460 1461 1464 1467 1469 1472 1474 1477 1479 1480 1482 1485 1488 1488 1488 1488 1490 1494 1493 1486 1482 1480 1481 1482 1482 1483 1484 1484 1485 1484 1484 1485 1486 1485 1485 1487 1489 1487 1489 1492 1494 1498 1502 1504 1507 1509 1511 1513 1515 1518
1517 1514 1512 1510 1507 1505 1502 1500 1498 1496 1494 1492 1490 1488 1486 1484 1482 1480 1479 1477 1475 1473 1473 1472 1471 1470 1471 1470 1471 1468 1460 1457 1458 1457 1458 1459 1459 1460 1460 1461 1462 1465 1468 1471 1473 1475 1476 1478 1480 1484 1487 1487 1487 1488 1488 1490 1486 1480 1480 1481 1481 1480 1481 1481 1481 1480 1482 1482 1482 1483 1484 1484 1483 1488 1490 1487 1487 1490 1493 1497 1501 1503 1506 1508 1510 1512 1514 1517
1516 1514 1511 1509 1507 1504 1502 1499 1497 1495 1493 1491 1489 1487 1486 1483 1481 1479 1477 1475 1473 1472 1472 1471 1470 1469 1469 1469 1469 1465 1458 1457 1457 1456 1457 1458 1459 1460 1461 1462 1462 1464 1467 1470 1472 1473 1475 1478 1481 1486 1487 1485 1486 1486 1485 1483 1482 1481 1482 1482 1479 1478 1479 1479 1478 1478 1480 1482 1481 1481 1483 1483 1484 1487 1488 1486 1487 1488 1492 1496 1500 1502 1504 1507 1510 1512 1514 1516
1515 1513 1511 1508 1506 1503 1501 1498 1496 1494 1492 1490 1488 1487 1485 1483 1480 1478 1476 1475 1472 1471 1470 1470 1469 1468 1467 1467 1463 1458 1455 1456 1456 1456 1457 1458 1458 1459 1461 1462 1463 1464 1466 1469 1471 1473 1476 1478 1481 1484 1483 1483 1485 1485 1483 1481 1481 1481 1482 1484 1480 1478 1478 1475 1475 1477 1478 1480 1478 1481 1488 1489 1486 1485 1484 1485 1487 1488 1491 1495 1499 1502 1504 1506 1509 1511 1513 1515
1515 1512 1510 1507 1505 1502 1500 1497 1495 1493 1491 1489 1487 1485 1484 1482 1480 1477 1475 1474 1472 1470 1469 1468 1467 1466 1467 1462 1454 1454 1456 1455 1455 1456 1457 1458 1458 1458 1460 1463 1464 1465 1467 1468 1470 1472 1475 1478 1480 1481 1480 1481 1482 1482 1480 1478 1480 1480 1481 1484 1483 1485 1482 1472 1471 1474 1475 1477 1475 1481 1496 1497 1486 1481 1482 1484 1487 1489 1492 1494 1498 1501 1503 1506 1508 1510 1512 1514
1514 1512 1510 1507 1504 1502 1499 1497 1494 1492 1490 1488 1486 1484 1483 1481 1479 1476 1474 1473 1471 1469 1467 1466 1465 1464 1464 1456 1450 1453 1454 1453 1454 1455 1457 1457 1457 1458 1459 1461 1463 1465 1467 1469 1471 1472 1475 1477 1480 1482 1481 1481 1480 1479 1479 1478 1480 1480 1481 1482 1485 1492 1484 1469 1468 1472 1475 1476 1471 1478 1495 1495 1484 1481 1481 1483 1485 1487 1491 1494 1496 1499 1502 1504 1506 1508 1510 1512
1514 1511 1509 1506 1504 1501 1499 1496 1493 1491 1489 1487 1484 1483 1481 1480 1478 1475 1473 1471 1470 1469 1466 1465 1463 1463 1461 1452 1448 1450 1449 1451 1453 1453 1455 1455 1455 1457 1457 1460 1462 1464 1466 1469 1471 1473 1475 1477 1480 1481 1480 1480 1481 1483 1483 1482 1480 1479 1486 1488 1486 1490 1483 1470 1466 1468 1472 1474 1470 1478 1491 1489 1482 1479 1478 1481 1483 1485 1488 1492 1495 1497 1499 1502 1504 1506 1508 1510
1513 1510 1508 1506 1503 1501 1498 1495 1492 1490 1488 1485 1484 1483 1481 1479 1477 1474 1472 1470 1469 1468 1466 1464 1462 1463 1461 1451 1446 1448 1449 1450 1451 1451 1452 1453 1454 1456 1457 1459 1461 1464 1466 1468 1471 1473 1475 1477 1478 1479 1480 1481 1482 1484 1487 1489 1486 1481 1486 1490 1486 1486 1484 1475 1467 1462 1465 1470 1471 1476 1485 1485 1479 1476 1477 1479 1481 1484 1487 1490 1493 1495 1497 1500 1502 1504 1506 1509
1513 1510 1507 1505 1503 1500 1497 1495 1492 1489 1487 1485 1483 1482 1480 1478 1476 1472 1471 1470 1469 1467 1465 1463 1463 1462 1456 1448 1447 1449 1449 1450 1450 1449 1450 1451 1453 1455 1458 1459 1460 1463 1466 1469 1472 1473 1475 1476 1478 1479 1479 1480 1481 1484 1493 1497 1493 1486 1484 1486 1484 1483 1483 1480 1471 1462 1461 1468 1473 1474 1478 1480 1474 1472 1475 1477 1479 1482 1485 1487 1490 1492 1495 1497 1500 1502 1504 1506
1512 1509 1506 1504 1502 1499 1496 1494 1491 1488 1486 1484 1482 1481 1479 1477 1475 1472 1470 1469 1467 1465 1464 1462 1464 1461 1451 1446 1450 1450 1449 1449 1447 1448 1448 1449 1451 1454 1456 1457 1459 1462 1466 1469 1471 1472 1474 1475 1476 1479 1479 1480 1479 1482 1490 1490 1485 1485 1485 1484 1484 1481 1480 1480 1474 1464 1462 1468 1473 1476 1477 1476 1472 1470 1472 1474 1477 1479 1481 1484 1487 1489 1492 1495 1497 1500 1501 1503
1511 1508 1505 1503 1501 1498 1496 1493 1490 1488 1486 1483 1482 1480 1477 1474 1472 1470 1470 1469 1467 1465 1465 1463 1464 1464 1456 1451 1451 1449 1447 1447 1445 1446 1448 1448 1450 1452 1455 1457 1459 1461 1465 1469 1468 1469 1471 1473 1476 1479 1476 1472 1469 1471 1477 1476 1474 1479 1480 1480 1482 1481 1478 1476 1471 1463 1462 1470 1474 1475 1476 1474 1473 1472 1470 1472 1474 1477 1479 1482 1485 1488 1490 1493 1495 1496 1498 1499
1510 1507 1504 1502 1500 1498 1495 1492 1490 1488 1485 1483 1480 1477 1474 1472 1471 1469 1465 1463 1466 1466 1464 1463 1463 1463 1460 1454 1450 1446 1444 1444 1444 1444 1446 1448 1449 1451 1453 1456 1458 1460 1463 1464 1466 1466 1468 1473 1473 1468 1461 1459 1462 1467 1471 1473 1472 1474 1476 1478 1478 1479 1477 1471 1468 1462 1459 1470 1474 1470 1472 1472 1472 1471 1467 1470 1474 1476 1479 1481 1483 1485 1487 1490 1491 1493 1494 1495
1510 1507 1503 1501 1499 1497 1495 1492 1490 1488 1486 1484 1481 1478 1479 1481 1481 1478 1468 1459 1459 1463 1463 1461 1462 1461 1457 1454 1450 1447 1444 1442 1441 1442 1445 1446 1448 1449 1451 1453 1457 1459 1459 1460 1463 1463 1467 1472 1465 1455 1455 1459 1464 1466 1469 1472 1472 1473 1475 1477 1477 1477 1475 1467 1466 1462 1459 1469 1472 1467 1472 1472 1469 1468 1466 1468 1472 1473 1475 1477 1479 1481 1483 1485 1487 1488 1490 1492
1510 1506 1502 1500 1499 1497 1494 1492 1490 1489 1487 1485 1483 1482 1486 1488 1488 1487 1482 1468 1458 1460 1462 1460 1460 1459 1456 1454 1451 1449 1449 1446 1442 1441 1445 1446 1447 1448 1448 1451 1454 1455 1456 1459 1462 1465 1468 1465 1454 1451 1458 1462 1464 1465 1468 1470 1471 1473 1474 1477 1478 1474 1472 1467 1463 1461 1460 1467 1470 1468 1472 1472 1465 1464 1464 1464 1466 1467 1469 1471 1473 1476 1479 1482 1483 1485 1487 1492
1509 1505 1502 1499 1498 1496 1494 1492 1491 1489 1487 1486 1484 1485 1487 1488 1487 1486 1486 1478 1464 1459 1461 1460 1460 1458 1455 1454 1451 1450 1450 1449 1445 1443 1445 1447 1446 1447 1447 1448 1452 1453 1454 1456 1458 1463 1466 1456 1448 1454 1459 1460 1464 1464 1466 1469 1470 1472 1473 1477 1476 1471 1473 1472 1463 1460 1460 1462 1465 1467 1470 1469 1463 1463 1463 1460 1460 1462 1466 1467 1469 1472 1473 1474 1475 1478 1483 1488
1508 1504 1501 1498 1496 1495 1493 1492 1491 1489 1487 1486 1485 1486 1486 1486 1485 1483 1482 1479 1471 1463 1460 1460 1459 1458 1456 1454 1452 1451 1450 1450 1448 1445 1446 1448 1447 1447 1446 1446 1450 1452 1451 1451 1454 1457 1456 1447 1446 1454 1457 1459 1464 1464 1465 1470 1471 1469 1469 1472 1471 1468 1470 1469 1464 1462 1460 1459 1459 1464 1474 1472 1466 1468 1466 1460 1460 1462 1463 1466 1469 1470 1470 1470 1473 1477 1481 1483
1507 1503 1500 1497 1495 1494 1492 1491 1490 1488 1487 1486 1486 1485 1485 1484 1483 1482 1480 1479 1474 1465 1461 1461 1459 1459 1458 1455 1453 1451 1450 1448 1447 1446 1446 1447 1447 1446 1445 1444 1447 1449 1448 1449 1453 1454 1451 1445 1446 1452 1455 1457 1461 1462 1463 1466 1470 1470 1465 1463 1464 1466 1466 1466 1467 1468 1471 1472 1461 1463 1484 1482 1467 1468 1466 1461 1463 1464 1462 1464 1465 1467 1469 1473 1476 1478 1480 1481
1506 1503 1499 1496 1494 1493 1492 1490 1489 1488 1486 1485 1485 1484 1484 1483 1481 1480 1480 1484 1480 1465 1461 1462 1461 1460 1458 1456 1453 1450 1450 1448 1445 1446 1445 1445 1446 1445 1445 1441 1440 1443 1445 1447 1451 1449 1445 1444 1446 1449 1452 1456 1459 1461 1459 1460 1471 1471 1457 1454 1459 1463 1466 1467 1469 1472 1478 1479 1463 1460 1481 1484 1471 1467 1462 1459 1462 1462 1461 1461 1460 1463 1468 1471 1472 1473 1476 1478
1506 1502 1499 1496 1494 1493 1492 1491 1489 1488 1485 1485 1484 1483 1482 1480 1480 1479 1480 1489 1483 1465 1463 1465 1463 1463 1460 1458 1454 1452 1457 1452 1443 1443 1443 1442 1442 1441 1442 1439 1437 1439 1438 1445 1451 1443 1439 1443 1446 1447 1450 1454 1457 1458 1453 1456 1466 1462 1448 1452 1460 1463 1465 1466 1470 1474 1473 1471 1465 1461 1470 1479 1477 1467 1457 1456 1460 1460 1459 1458 1458 1460 1464 1465 1466 1468 1470 1473
1505 1501 1498 1496 1495 1493 1492 1491 1490 1488 1487 1485 1483 1482 1480 1478 1479 1477 1481 1490 1480 1465 1467 1468 1465 1464 1461 1459 1456 1456 1459 1455 1447 1445 1440 1438 1438 1437 1439 1437 1437 1438 1434 1441 1447 1437 1434 1439 1442 1445 1450 1452 1449 1447 1447 1452 1458 1452 1446 1452 1457 1460 1463 1463 1470 1474 1470 1474 1476 1466 1466 1480 1479 1461 1453 1455 1459 1461 1457 1454 1454 1456 1458 1459 1461 1464 1466 1468
1505 1501 1498 1496 1495 1494 1493 1492 1490 1488 1487 1484 1482 1480 1478 1477 1477 1477 1485 1489 1476 1468 1472 1469 1465 1465 1460 1456 1456 1455 1455 1454 1454 1449 1440 1437 1437 1435 1436 1435 1436 1438 1434 1434 1438 1435 1431 1432 1436 1442 1445 1445 1443 1442 1445 1450 1452 1448 1448 1452 1454 1458 1459 1462 1470 1471 1472 1481 1481 1466 1465 1481 1478 1458 1455 1460 1459 1457 1452 1448 1448 1448 1451 1454 1456 1460 1463 1466
1504 1501 1498 1497 1496 1494 1493 1492 1490 1489 1486 1483 1482 1479 1476 1476 1477 1483 1491 1486 1475 1474 1474 1470 1469 1468 1463 1458 1456 1455 1454 1454 1454 1448 1441 1438 1437 1434 1433 1433 1434 1436 1435 1432 1433 1433 1429 1428 1432 1434 1436 1438 1440 1442 1443 1444 1446 1447 1450 1454 1457 1458 1458 1463 1466 1468 1478 1484 1475 1462 1460 1474 1478 1460 1452 1454 1449 1446 1446 1446 1446 1445 1448 1452 1454 1457 1459 1462
1504 1500 1498 1497 1496 1495 1493 1491 1490 1488 1485 1483 1480 1477 1476 1477 1479 1488 1491 1481 1478 1479 1474 1473 1473 1469 1467 1464 1461 1459 1456 1455 1454 1450 1447 1444 1441 1439 1440 1441 1439 1437 1438 1436 1434 1432 1430 1431 1430 1427 1429 1433 1438 1441 1441 1440 1443 1448 1453 1457 1464 1466 1463 1468 1470 1472 1485 1484 1467 1457 1456 1468 1475 1459 1444 1442 1436 1434 1438 1439 1440 1442 1444 1446 1448 1452 1454 1457
1503 1500 1498 1497 1496 1495 1493 1491 1489 1487 1484 1482 1479 1476 1476 1479 1485 1493 1489 1480 1483 1484 1478 1478 1477 1472 1471 1469 1467 1464 1459 1459 1458 1456 1456 1455 1453 1453 1457 1462 1457 1450 1445 1439 1437 1435 1432 1430 1428 1427 1426 1427 1436 1442 1443 1442 1443 1449 1454 1459 1473 1480 1477 1481 1481 1478 1482 1476 1459 1452 1457 1463 1461 1445 1435 1434 1430 1428 1428 1427 1429 1433 1435 1438 1442 1446 1450 1453
1503 1500 1499 1498 1495 1494 1493 1491 1489 1487 1484 1482 1479 1476 1476 1482 1490 1494 1490 1486 1487 1485 1481 1481 1479 1476 1474 1471 1471 1468 1463 1464 1462 1460 1460 1460 1461 1461 1463 1463 1459 1457 1452 1440 1438 1439 1436 1431 1426 1428 1427 1423 1428 1438 1444 1445 1444 1448 1452 1458 1472 1483 1488 1491 1486 1479 1478 1469 1452 1448 1456 1459 1448 1433 1425 1425 1423 1421 1421 1420 1423 1426 1428 1431 1434 1439 1444 1448
1503 1500 1499 1497 1495 1494 1493 1492 1490 1487 1485 1483 1480 1477 1480 1489 1492 1491 1490 1489 1486 1483 1482 1482 1480 1479 1477 1475 1474 1471 1470 1469 1465 1465 1464 1461 1465 1466 1464 1462 1459 1462 1459 1447 1440 1440 1441 1437 1426 1423 1423 1420 1422 1427 1433 1437 1441 1442 1441 1449 1459 1464 1473 1482 1479 1477 1475 1466 1453 1451 1456 1452 1440 1426 1414 1413 1414 1414 1416 1417 1421 1424 1425 1427 1429 1434 1440 1444
1503 1500 1498 1496 1494 1494 1492 1492 1490 1488 1486 1484 1483 1484 1489 1496 1495 1491 1490 1488 1484 1484 1483 1482 1481 1481 1481 1478 1476 1474 1476 1475 1469 1469 1468 1466 1469 1471 1470 1469 1466 1467 1466 1462 1458 1450 1441 1428 1416 1413 1414 1415 1419 1419 1420 1430 1439 1437 1434 1443 1449 1443 1449 1462 1463 1460 1461 1461 1455 1449 1445 1435 1424 1414 1406 1407 1410 1409 1412 1414 1418 1423 1425 1428 1432 1435 1439 1441
1502 1499 1497 1495 1494 1493 1492 1491 1489 1488 1487 1485 1488 1492 1493 1493 1491 1489 1488 1485 1484 1484 1483 1484 1483 1484 1485 1482 1478 1476 1477 1477 1474 1473 1472 1468 1470 1474 1474 1473 1471 1472 1475 1477 1475 1468 1457 1435 1417 1417 1414 1407 1411 1413 1413 1423 1431 1432 1435 1438 1433 1429 1438 1453 1458 1452 1453 1462 1454 1440 1435 1428 1422 1415 1405 1406 1411 1410 1411 1412 1413 1417 1420 1426 1431 1434 1437 1439
1501 1499 1497 1495 1494 1493 1492 1491 1489 1488 1487 1487 1492 1494 1491 1488 1487 1486 1484 1483 1483 1482 1484 1488 1486 1485 1488 1486 1483 1480 1479 1479 1478 1478 1476 1472 1472 1475 1476 1475 1475 1475 1478 1481 1476 1471 1472 1456 1430 1424 1421 1406 1405 1410 1410 1411 1417 1427 1434 1428 1425 1432 1436 1444 1457 1458 1459 1464 1450 1436 1435 1431 1429 1423 1408 1406 1413 1412 1411 1410 1410 1412 1415 1421 1424 1427 1431 1433
1501 1499 1497 1496 1494 1492 1490 1489 1488 1487 1487 1488 1492 1491 1488 1487 1486 1484 1483 1483 1483 1482 1485 1490 1488 1485 1488 1489 1486 1483 1482 1484 1484 1482 1479 1477 1476 1476 1477 1477 1477 1476 1476 1478 1475 1468 1470 1465 1437 1418 1419 1411 1403 1411 1416 1411 1409 1416 1420 1417 1425 1442 1442 1441 1452 1457 1461 1464 1450 1438 1435 1429 1426 1420 1409 1407 1410 1409 1410 1410 1409 1410 1411 1414 1417 1420 1424 1427
1501 1498 1496 1495 1492 1488 1487 1487 1486 1486 1486 1490 1493 1490 1487 1487 1486 1485 1484 1483 1483 1483 1486 1488 1488 1486 1487 1489 1488 1485 1484 1487 1487 1486 1484 1482 1480 1476 1476 1478 1477 1477 1477 1474 1474 1469 1467 1470 1449 1419 1417 1418 1408 1411 1420 1417 1411 1411 1414 1416 1419 1429 1434 1436 1440 1442 1449 1458 1452 1444 1438 1425 1416 1410 1404 1404 1402 1401 1406 1408 1408 1406 1405 1408 1411 1414 1417 1421
1501 1499 1496 1494 1490 1487 1485 1484 1484 1485 1488 1492 1494 1491 1488 1486 1486 1486 1485 1484 1483 1484 1485 1486 1486 1488 1488 1487 1487 1486 1485 1486 1487 1488 1486 1484 1483 1479 1476 1479 1477 1476 1477 1473 1473 1471 1466 1470 1463 1435 1423 1424 1413 1407 1410 1412 1413 1414 1417 1420 1419 1419 1423 1428 1431 1428 1434 1446 1449 1448 1441 1420 1405 1401 1397 1396 1395 1395 1398 1402 1403 1401 1400 1402 1405 1408 1411 1415
1501 1500 1498 1493 1490 1487 1484 1484 1486 1489 1492 1494 1494 1492 1489 1487 1487 1487 1486 1485 1484 1483 1484 1484 1485 1487 1488 1487 1487 1486 1485 1485 1486 1489 1487 1483 1485 1483 1478 1479 1480 1477 1476 1473 1472 1472 1468 1470 1470 1455 1442 1435 1419 1404 1403 1407 1411 1413 1414 1415 1415 1417 1421 1433 1440 1429 1423 1432 1436 1440 1439 1415 1395 1393 1391 1389 1390 1389 1390 1394 1397 1396 1396 1398 1400 1402 1406 1410
1502 1502 1499 1494 1491 1488 1485 1488 1493 1494 1495 1497 1497 1495 1491 1488 1488 1488 1487 1485 1485 1483 1482 1483 1484 1485 1486 1486 1486 1486 1485 1485 1486 1488 1489 1486 1486 1486 1482 1481 1483 1480 1478 1476 1472 1470 1468 1468 1469 1461 1449 1438 1419 1405 1406 1411 1412 1411 1410 1408 1408 1413 1415 1427 1439 1429 1421 1426 1425 1430 1434 1409 1384 1384 1385 1383 1384 1383 1384 1388 1391 1392 1392 1393 1395 1397 1401 1405
1503 1502 1500 1496 1494 1490 1488 1494 1499 1498 1499 1499 1497 1494 1492 1490 1489 1489 1488 1487 1487 1486 1484 1483 1484 1485 1486 1486 1485 1486 1485 1485 1487 1487 1488 1487 1486 1485 1484 1483 1484 1481 1479 1477 1472 1468 1467 1467 1469 1462 1444 1425 1413 1406 1405 1405 1407 1410 1408 1403 1404 1408 1406 1409 1417 1418 1421 1426 1422 1432 1436 1406 1379 1379 1380 1379 1380 1380 1381 1384 1386 1389 1390 1390 1391 1393 1397 1401
1504 1501 1499 1499 1496 1491 1492 1501 1505 1503 1502 1500 1497 1495 1492 1490 1490 1489 1489 1490 1490 1490 1487 1485 1485 1485 1486 1485 1485 1486 1486 1486 1488 1486 1485 1486 1485 1484 1484 1483 1483 1483 1480 1477 1473 1471 1471 1470 1471 1471 1454 1428 1413 1410 1407 1407 1413 1418 1415 1407 1400 1399 1402 1405 1408 1412 1419 1419 1417 1432 1435 1404 1378 1378 1379 1379 1380 1380 1380 1381 1382 1384 1384 1385 1387 1390 1394 1398
1506 1502 1499 1500 1498 1495 1498 1505 1507 1505 1505 1503 1500 1498 1495 1493 1492 1491 1490 1491 1491 1491 1489 1486 1485 1485 1485 1486 1486 1486 1485 1486 1486 1485 1484 1484 1483 1482 1483 1483 1483 1482 1479 1477 1474 1472 1473 1471 1471 1477 1471 1449 1432 1428 1431 1435 1437 1430 1421 1414 1405 1398 1399 1404 1410 1416 1420 1416 1413 1420 1419 1398 1381 1379 1378 1378 1380 1380 1377 1377 1378 1378 1378 1379 1382 1386 1391 1395
1509 1507 1503 1500 1499 1499 1503 1506 1506 1506 1506 1506 1504 1499 1497 1496 1494 1492 1491 1491 1491 1490 1489 1486 1485 1486 1486 1487 1487 1487 1485 1484 1484 1484 1483 1483 1482 1482 1482 1482 1482 1480 1478 1475 1472 1470 1471 1470 1469 1473 1473 1462 1452 1447 1446 1450 1450 1440 1429 1422 1416 1407 1399 1399 1407 1413 1413 1414 1414 1408 1404 1399 1390 1382 1378 1376 1378 1379 1375 1374 1374 1373 1373 1375 1378 1383 1387 1391
1511 1511 1509 1506 1502 1502 1504 1505 1506 1507 1507 1507 1506 1501 1499 1499 1497 1494 1492 1492 1492 1490 1488 1487 1487 1489 1489 1489 1488 1487 1484 1483 1483 1483 1481 1481 1481 1481 1481 1481 1480 1479 1477 1474 1472 1470 1472 1472 1468 1467 1465 1461 1457 1451 1446 1447 1448 1442 1435 1426 1417 1411 1403 1397 1399 1401 1402 1411 1415 1403 1399 1402 1392 1380 1377 1375 1375 1376 1372 1371 1370 1367 1369 1372 1375 1380 1384 1388
1512 1512 1512 1511 1510 1508 1508 1506 1506 1507 1506 1506 1505 1501 1501 1502 1500 1499 1496 1493 1492 1492 1491 1490 1489 1490 1490 1489 1488 1487 1485 1484 1484 1482 1480 1481 1480 1481 1481 1480 1478 1477 1476 1476 1473 1471 1472 1472 1466 1462 1462 1457 1453 1448 1444 1444 1442 1435 1431 1424 1414 1409 1405 1396 1391 1392 1394 1401 1405 1398 1398 1399 1386 1375 1374 1371 1372 1374 1370 1368 1368 1365 1366 1370 1373 1378 1382 1385
1512 1513 1512 1512 1512 1512 1511 1509 1507 1507 1506 1505 1503 1502 1503 1503 1502 1502 1499 1496 1494 1493 1493 1494 1492 1490 1489 1488 1487 1487 1485 1485 1484 1481 1480 1480 1479 1480 1482 1480 1478 1476 1476 1477 1474 1470 1471 1469 1462 1461 1461 1453 1447 1443 1439 1437 1435 1427 1421 1417 1410 1404 1401 1394 1389 1389 1390 1391 1392 1392 1394 1391 1379 1372 1372 1369 1369 1371 1367 1366 1368 1366 1366 1369 1372 1376 1379 1382
1513 1513 1512 1512 1512 1511 1511 1509 1508 1508 1507 1505 1504 1503 1503 1503 1503 1502 1500 1499 1498 1495 1494 1494 1493 1490 1488 1487 1486 1485 1483 1482 1482 1479 1479 1479 1478 1478 1480 1479 1477 1476 1477 1477 1474 1470 1470 1468 1461 1461 1462 1451 1440 1435 1432 1432 1431 1424 1415 1411 1406 1397 1390 1389 1388 1388 1389 1390 1390 1392 1394 1388 1376 1371 1372 1369 1367 1369 1367 1365 1366 1366 1365 1366 1370 1374 1376 1380
1512 1513 1512 1512 1511 1510 1510 1510 1509 1509 1508 1505 1504 1504 1503 1503 1503 1502 1500 1498 1498 1496 1494 1493 1492 1490 1487 1486 1484 1483 1480 1479 1478 1476 1475 1476 1475 1473 1474 1474 1473 1475 1476 1476 1474 1471 1470 1467 1462 1463 1466 1454 1438 1433 1432 1430 1425 1419 1415 1413 1408 1397 1388 1388 1393 1394 1392 1391 1391 1393 1395 1388 1378 1373 1372 1370 1369 1371 1370 1367 1366 1366 1365 1365 1368 1372 1375 1378
1512 1512 1512 1512 1511 1510 1510 1510 1510 1510 1508 1505 1504 1503 1503 1502 1502 1502 1501 1497 1495 1494 1493 1492 1491 1489 1487 1485 1483 1480 1478 1476 1474 1473 1471 1471 1470 1468 1468 1467 1467 1471 1473 1474 1474 1471 1468 1467 1465 1467 1468 1455 1440 1437 1436 1428 1421 1418 1418 1417 1412 1401 1391 1392 1400 1403 1398 1395 1393 1392 1390 1386 1380 1377 1375 1373 1373 1374 1373 1369 1367 1367 1366 1365 1366 1369 1373 1376